Location: Valley City Station
(41.2384°N, 81.9007°W)
Time: 23:37:29
(UTC+00:00)

Daily predictions for brighter satellites

Satellite Brightness Start Highest point End
(mag) Time Altitude Azimuth Time Altitude Azimuth Time Altitude Azimuth
Cosmos 1666 3.0 12:00:55 10° SSW 12:04:33 44° W 12:08:12 10° N
IRIDIUM 106 4.4 12:01:05 10° N 12:06:11 56° W 12:11:16 10° SSW
Cosmos 405 4.4 12:03:37 10° NW 12:06:13 19° W 12:08:48 10° SW
AQUARIUS 4.1 12:04:17 10° N 12:08:46 71° WNW 12:13:13 10° SSW
Cosmos 968 Rocket 3.6 12:04:51 10° NNW 12:10:01 81° ENE 12:15:07 10° SSE
Cosmos 2278 Rocket 2.4 12:05:45 10° SSW 12:11:24 79° ESE 12:17:06 10° NNE
Cosmos 1975 3.8 12:09:13 10° S 12:13:05 52° E 12:16:58 10° NNE
Cosmos 1066 Rocket 4.2 12:10:23 10° NNW 12:15:50 64° W 12:21:09 10° S
Cosmos 1503 Rocket 4.2 12:11:02 10° NNW 12:16:24 83° ENE 12:21:46 10° SSE
NOAA 12 4.2 12:12:17 10° NNE 12:17:33 84° ESE 12:22:47 10° SSW
BREEZE-M DEB (TANK) 3.9 12:14:05 10° WNW 12:18:15 23° N 12:20:28 10° NE
Okean-O 3.7 22:25:39 10° ESE 22:29:12 24° ENE 22:32:45 10° NNE
Cosmos 292 Rocket 3.8 22:25:31 10° NNW 22:30:24 85° ENE 22:35:15 10° SSE
Cosmos 1092 Rocket 4.0 22:28:35 10° S 22:34:49 69° E 22:41:01 10° NNE
STARLINK-43 3.4 22:31:41 10° SW 22:35:24 77° NW 22:39:07 10° NE
Cosmos 1174 4.4 22:30:55 10° SW 22:36:01 71° WNW 22:40:05 10° NNE
Meteor 1-27 Rocket 4.4 22:30:40 10° SSW 22:36:22 62° WNW 22:42:13 10° N
BREEZE-M DEB (TANK) 2.8 22:35:40 10° WNW 22:38:10 46° SW 22:40:23 10° SE
CZ-4B R/B 4.1 22:34:04 10° S 22:39:18 55° W 22:44:39 10° NNW
USA 215 3.4 22:33:14 10° NE 22:39:47 80° NW 22:46:19 10° SW
Cosmos 1743 3.5 22:36:38 10° NNE 22:40:06 30° ENE 22:43:32 10° SE
Cosmos 1689 Rocket 4.5 22:40:36 10° NNW 22:43:04 23° WNW 22:45:31 10° SW
PSLV R/B 4.0 22:40:56 10° N 22:45:04 80° WNW 22:49:08 10° SSW
Helios 1A Rocket 4.4 22:42:38 10° S 22:46:30 41° W 22:50:23 10° NNW
Cosmos 1140 Rocket 3.6 22:43:03 10° S 22:48:01 54° ESE 22:53:04 10° NNE
Cosmos 2278 Rocket 4.3 22:44:27 10° NW 22:49:23 31° WSW 22:54:17 10° SSW
Cosmos 1536 4.1 22:50:30 10° NNW 22:54:18 44° W 22:58:05 10° SSW
Cosmos 1023 Rocket 4.4 22:51:20 10° S 22:56:21 67° ESE 23:01:27 10° NNE
Envisat 3.2 22:52:20 10° SE 22:57:10 46° ENE 23:02:00 10° N
CORIOLIS 4.1 22:52:00 10° SSE 22:57:25 73° ENE 23:02:52 10° N
Cosmos 2369 Rocket 3.0 22:53:41 10° N 22:58:32 29° NE 23:03:22 10° ESE
Lacrosse 5 rocket 3.8 22:58:56 10° NNW 22:59:31 10° NNW 23:00:05 10° N
STARLINK-80 3.4 22:56:59 10° SW 23:00:47 84° NW 23:03:41 17° NE
SL-4 R/B 3.4 23:01:34 10° NW 23:04:33 21° NNE 23:06:12 17° NE
SL-16 R/B 2.6 22:59:08 10° SW 23:04:46 64° WNW 23:10:26 10° NNE
Cosmos 1782 Rocket 3.4 23:00:33 10° N 23:04:54 79° E 23:09:14 10° S
Cosmos 407 Rocket 3.8 23:00:41 10° SSW 23:05:52 71° WNW 23:11:09 10° NNE
Cosmos 1428 Rocket 4.4 22:59:49 10° S 23:05:58 75° E 23:12:13 10° N
AQUARIUS 4.3 23:02:50 10° S 23:07:19 81° WSW 23:11:50 10° NNW
Meteor 1-18 Rocket 4.2 23:02:06 10° S 23:07:44 69° E 23:13:19 10° NNE
SKYMED 2 4.1 23:04:05 10° NNE 23:08:09 38° E 23:12:11 10° SSE
Okean 1 3.2 23:05:33 10° S 23:09:31 82° E 23:13:30 10° N
Cosmos 2237 Rocket 4.2 23:07:24 10° WSW 23:11:51 23° NW 23:16:21 10° N
Cosmos 1603 4.1 23:06:57 10° S 23:12:18 43° ESE 23:16:39 15° NE
USA 267 3.3 23:06:03 10° ESE 23:12:26 60° NE 23:18:51 10° NW
S3M 4.3 23:07:05 10° N 23:12:53 41° ENE 23:18:36 10° SE
Cosmos 1703 Rocket 4.4 23:09:02 10° SSW 23:13:24 53° W 23:17:48 10° N
Cosmos 405 Rocket 3.4 23:10:36 10° NNE 23:13:51 28° ENE 23:17:08 10° SE
NOSS 3-1 (C) 4.5 23:08:57 10° NNW 23:15:54 39° NE 23:23:43 10° ESE
Cosmos 1943 Rocket 2.4 23:10:53 10° NNW 23:16:18 46° ENE 23:21:37 10° SE
FengYun 1-2 T 4.2 23:16:13 10° SSE 23:21:34 57° ENE 23:26:57 10° N
Lacrosse 5 2.0 23:17:02 10° SSW 23:22:03 62° SE 23:25:02 24° ENE
Cosmos 1553 Rocket 4.0 23:16:33 10° N 23:22:56 66° E 23:29:18 10° SSE
Okean 2 Rocket 3.2 23:18:54 10° N 23:23:19 53° E 23:27:44 10° SSE
H-2A R/B 4.0 23:20:20 10° S 23:23:51 43° W 23:27:23 10° NNW
Abrixas rocket 2.6 23:22:55 10° W 23:25:50 46° NNW 23:26:42 34° NNE
Cosmos 2221 Rocket 3.5 23:22:59 10° S 23:27:25 75° E 23:31:52 10° N
USA 229 DEB 4.2 23:20:39 10° NNW 23:27:31 43° NE 23:33:31 15° ESE
Cosmos 2026 Rocket 4.3 23:21:35 10° SSW 23:27:35 66° W 23:33:39 10° N
USA 229 4.2 23:20:45 10° NNW 23:27:37 43° NE 23:33:29 15° ESE
Cosmos 489 Rocket 4.4 23:21:14 10° NNW 23:27:37 78° ENE 23:33:58 10° SSE
STARLINK-35 4.5 23:26:01 10° SSW 23:29:36 31° SE 23:30:28 28° ESE
Uosat 12 SS-18 rocket 4.1 23:25:27 10° NNW 23:30:02 54° NE 23:33:06 17° SE
Sich 1 Rocket 3.8 23:26:15 10° NNW 23:30:39 72° W 23:34:59 10° S
CSL-04 Rocket 3.9 23:26:08 10° SE 23:31:04 43° ENE 23:36:04 10° N
STARLINK-51 4.4 23:27:38 10° SSW 23:31:15 33° SE 23:32:04 30° ESE
STARLINK-30 4.4 23:29:16 10° SSW 23:32:55 34° SE 23:33:40 31° ESE
YAOGAN 6 2.4 23:29:26 10° SSE 23:32:58 70° ENE 23:36:34 10° N
STARLINK-33 4.3 23:30:44 10° SSW 23:34:23 35° SE 23:35:06 32° ESE
GPS 2-05 Rocket1 4.1 23:32:51 10° SW 23:35:03 21° S 23:35:23 21° SSE
CZ-4C R/B 2.1 23:30:46 10° SSW 23:35:32 57° ESE 23:38:14 28° NE
CZ-4 R/B 1.3 23:32:21 10° SSE 23:36:08 55° ENE 23:39:54 10° N
STARLINK-50 4.2 23:32:29 10° SSW 23:36:11 36° SE 23:36:51 34° ESE
STARLINK 4.3 23:34:00 10° SSW 23:37:37 33° SE 23:38:06 32° ESE
Meteor 2-4 Rocket 3.8 23:32:20 10° S 23:38:04 60° E 23:43:35 11° NNE
STARLINK-56 4.1 23:35:45 10° SSW 23:39:29 39° SE 23:40:01 37° ESE
Cosmos 1515 3.5 23:36:00 10° S 23:39:46 79° E 23:41:52 25° NNE
Starlink (trailer) 4.1 23:37:21 10° SSW 23:41:08 40° SE 23:41:37 38° ESE
STARLINK-38 4.0 23:38:59 10° SSW 23:42:47 42° SE 23:43:13 40° ESE
STARLINK-65 4.0 23:40:35 10° SSW 23:44:24 43° SE 23:44:46 42° ESE
Cosmos 1674 Rocket 3.8 23:40:42 10° SSE 23:44:53 43° E 23:45:05 43° E
STARLINK-48 4.1 23:43:43 10° WSW 23:47:29 49° NNW 23:48:30 38° NNE
Cosmos 1975 3.3 23:45:16 10° NNW 23:49:13 60° W 23:53:10 10° S
STARLINK-69 3.8 23:45:32 10° SSW 23:49:25 49° SE 23:49:38 48° ESE
Gbstr 26 Del rocket 4.0 23:42:38 10° SW 23:49:58 84° SE 23:52:45 36° ENE
STARLINK-66 3.8 23:47:08 10° SSW 23:51:01 50° SE 23:51:11 49° SE
BREEZE-M R/B 3.1 23:47:00 10° NW 23:50:43 40° N 23:50:43 40° N
CZ-3B R/B 3.7 23:50:02 10° S 23:52:24 14° SSE 23:53:54 13° SE
Cosmos 1300 Rocket 3.3 23:49:35 10° N 23:53:55 84° E 23:58:13 10° S
CSL-04 Debris 4.0 23:49:07 10° SSE 23:54:31 71° ENE 23:59:56 10° N
STARLINK-70 3.7 23:52:01 10° SW 23:55:56 55° SE 23:55:56 55° SE
